Вернуться в каталог

STARLINK-35051

АктивенСвязьSSO
NORAD 65380·PAYLOAD·🇺🇸 United States

Запущен Aug 30, 2025 с Vandenberg Space Force Base

Loading…

Ближайшие Пролёты (ближайшие 24 часа)

TLE

СвежийSource: CelesTrak SupGP

Эпоха: Sep 15, 2026, 02:52 UTC

1 65380C 25191B   26258.11993056  .00030096  00000+0  93377-3 0  2584
2 65380  97.2843 124.1980 0001857  98.9666 214.9691 15.33439734    12

Отслеживайте STARLINK-35051 в реальном времени с AllMySat

Download on the App Store